EW5256 Weather Reports


time (UTC)temp
F
wind
direction
speed
knots
gust
knots
rain 1hr
in
rain 24hr
in
rain mn
in
humidity
%
barometer
mb
20260507114528 48 287 0.0 3.5 0.00 0.74 0.23 82 1006.9
20260507113039 49 12 0.0 1.7 0.00 0.74 0.23 85 1007.0
20260507111527 48 301 0.0 0.0 0.00 0.74 0.23 86 1007.3
20260507110030 47 42 0.0 0.0 0.00 0.74 0.23 87 1007.0
20260507104525 47 337 0.0 0.0 0.00 0.74 0.23 88 1007.2
20260507103022 46 205 0.0 2.6 0.00 0.74 0.23 88 1007.6
20260507101522 46 302 0.0 1.7 0.00 0.74 0.23 87 1007.1
20260507100030 46 323 0.0 0.9 0.00 0.74 0.23 87 1006.8
20260507094519 46 294 0.0 2.6 0.00 0.74 0.23 86 1006.8
20260507093018 46 321 0.9 2.6 0.00 0.74 0.23 85 1006.4
20260507091521 46 286 0.9 3.5 0.00 0.74 0.23 85 1006.8
20260507090015 47 32 0.9 7.0 0.00 0.74 0.23 85 1006.6
20260507084513 47 344 1.7 6.1 0.00 0.74 0.23 86 1006.5
20260507083011 48 24 0.9 4.3 0.00 0.74 0.23 88 1006.2
20260507081508 48 240 0.9 3.5 0.00 0.74 0.23 89 1006.6
20260507080006 48 273 0.9 2.6 0.00 0.74 0.23 89 1006.2
20260507074506 48 299 0.9 4.3 0.00 0.74 0.23 90 1006.2
20260507073004 48 308 0.9 4.3 0.00 0.74 0.23 91 1006.0
20260507071601 48 292 0.9 3.5 0.00 0.74 0.23 91 1005.9
20260507070059 49 296 1.7 4.3 0.00 0.74 0.23 92 1005.7
20260507064611 49 296 0.9 4.3 0.00 0.74 0.23 92 1005.5
20260507063106 49 267 0.9 3.5 0.00 0.74 0.23 92 1005.3
20260507061553 50 329 0.0 2.6 0.01 0.74 0.23 93 1005.3
20260507060051 50 346 0.9 2.6 0.01 0.74 0.23 93 1005.0
20260507054549 51 360 0.9 4.3 0.04 0.74 0.23 94 1005.3
20260507053049 51 322 0.9 5.2 0.11 0.74 0.23 94 1005.1
20260507051547 52 5 1.7 6.1 0.19 0.73 0.22 94 1005.2
20260507050045 52 342 1.7 5.2 0.22 0.73 0.22 94 1005.1
20260507044544 51 340 0.9 5.2 0.20 0.70 0.19 94 1005.4
20260507043046 51 240 0.9 3.5 0.12 0.62 0.11 94 1005.5
20260507041544 51 329 0.9 4.3 0.04 0.54 0.03 94 1004.8
20260507040036 51 290 2.6 6.1 0.01 0.51 0.00 94 1004.4
20260507034543 51 196 3.5 7.0 0.00 0.50 0.50 94 1004.3
20260507033046 51 201 3.5 8.7 0.00 0.50 0.50 94 1004.4
20260507031534 51 222 4.3 9.6 0.00 0.50 0.50 94 1004.5
20260507030032 51 228 6.1 9.6 0.01 0.50 0.50 94 1004.5
20260507024533 51 210 4.3 12.2 0.02 0.50 0.50 94 1004.6
20260507023030 51 209 4.3 8.7 0.03 0.50 0.50 94 1004.7
20260507021527 51 205 4.3 10.4 0.03 0.50 0.50 94 1005.0
20260507020026 51 194 5.2 9.6 0.03 0.49 0.49 93 1005.1
20260507014525 51 238 5.2 10.4 0.03 0.48 0.48 93 1005.3
20260507013021 51 156 6.1 11.3 0.03 0.47 0.47 93 1005.5
20260507011521 51 211 2.6 7.8 0.04 0.47 0.47 93 1005.5
20260507010029 51 206 4.3 10.4 0.03 0.46 0.46 93 1005.6
20260507004518 51 171 6.1 9.6 0.02 0.45 0.45 93 1005.7
20260507003017 52 217 6.1 15.6 0.00 0.43 0.43 93 1005.6
20260507001516 52 190 7.0 13.9 0.00 0.43 0.43 92 1005.7
20260507000012 52 165 6.1 13.9 0.00 0.43 0.43 92 1005.7
20260506234516 52 213 8.7 14.8 0.00 0.43 0.43 92 1005.8
20260506233008 52 233 6.1 13.0 0.01 0.43 0.43 92 1006.0
20260506231506 52 243 7.8 14.8 0.03 0.43 0.43 92 1006.0
20260506230004 53 188 7.8 13.9 0.05 0.43 0.43 92 1006.2
20260506224509 53 192 5.2 11.3 0.06 0.42 0.42 92 1006.2
20260506223108 52 184 5.2 12.2 0.09 0.42 0.42 92 1006.5
20260506221557 52 178 6.1 12.2 0.12 0.40 0.40 92 1006.5
20260506220107 53 189 5.2 12.2 0.15 0.38 0.38 92 1006.6
20260506214553 52 203 4.3 9.6 0.15 0.36 0.36 92 1006.7
20260506213051 51 192 5.2 10.4 0.14 0.33 0.33 92 1006.9
20260506211555 51 161 4.3 10.4 0.13 0.28 0.28 91 1007.2
20260506210047 52 196 5.2 9.6 0.11 0.23 0.23 91 1007.0
20260506204545 52 188 4.3 8.7 0.13 0.21 0.21 91 1007.1
20260506203042 52 167 4.3 10.4 0.17 0.19 0.19 91 1007.3
20260506201541 52 219 3.5 7.8 0.15 0.15 0.15 91 1007.7
20260506200040 52 192 4.3 9.6 0.12 0.12 0.12 90 1007.7
20260506194543 53 184 3.5 11.3 0.07 0.07 0.07 89 1007.8
20260506193034 54 209 4.3 13.9 0.02 0.02 0.02 87 1007.8
20260506191531 55 182 5.2 13.0 0.00 0.00 0.00 85 1007.4
20260506190029 55 204 3.5 9.6 0.00 0.00 0.00 84 1007.4
20260506184530 55 165 6.1 11.3 0.00 0.00 0.00 83 1007.5
20260506183027 55 170 5.2 10.4 0.00 0.00 0.00 83 1007.7
20260506181524 55 175 5.2 12.2 0.00 0.00 0.00 82 1007.7
20260506180021 55 188 4.3 9.6 0.00 0.00 0.00 82 1007.9
20260506174520 54 182 4.3 8.7 0.00 0.00 0.00 83 1008.1
20260506173021 54 196 3.5 7.8 0.00 0.00 0.00 83 1008.2
20260506171523 55 198 4.3 13.0 0.00 0.00 0.00 83 1008.5
20260506170016 55 170 4.3 9.6 0.00 0.00 0.00 82 1008.8
20260506164513 56 174 4.3 7.0 0.00 0.00 0.00 81 1009.0
20260506163107 0 0.0 0.0 0.00 0.00 0.00 1009.4
20260506160006 56 213 4.3 8.7 0.00 0.00 0.00 82 1009.8
20260506154512 56 190 5.2 12.2 0.00 0.00 0.00 82 1010.0
20260506153022 57 221 3.5 9.6 0.00 0.00 0.00 82 1010.1
20260506151520 58 186 2.6 7.8 0.00 0.00 0.00 82 1010.0
20260506150011 57 223 5.2 8.7 0.00 0.00 0.00 81 1009.6
20260506144506 56 221 6.1 9.6 0.00 0.00 0.00 82 1009.3
20260506143008 57 177 4.3 7.8 0.00 0.00 0.00 82 1009.6
20260506141503 57 219 2.6 6.1 0.00 0.00 0.00 83 1010.2
20260506140020 55 213 3.5 8.7 0.00 0.00 0.00 84 1010.2
20260506134521 55 180 3.5 9.6 0.00 0.00 0.00 84 1010.1
20260506133015 55 194 4.3 9.6 0.00 0.00 0.00 83 1010.0
20260506131527 56 193 4.3 8.7 0.00 0.00 0.00 82 1009.8
20260506130006 56 203 5.2 8.7 0.00 0.00 0.00 82 1009.7
20260506124506 55 215 4.3 9.6 0.00 0.00 0.00 83 1009.9
20260506123019 55 184 2.6 7.0 0.00 0.00 0.00 85 1010.0
20260506121520 54 173 3.5 8.7 0.00 0.00 0.00 84 1010.0
20260506120018 54 162 2.6 5.2 0.00 0.00 0.00 84 1010.1